Date,Installs,Update checks
2017-06-30,0,0
2017-07-01,0,0
2017-07-02,0,0
2017-07-03,0,0
2017-07-04,0,0
2017-07-05,0,0
2017-07-06,0,0
2017-07-07,0,0
2017-07-08,0,0
2017-07-09,0,0
2017-07-10,0,0
2017-07-11,0,0
2017-07-12,0,0
2017-07-13,0,0
2017-07-14,0,0
2017-07-15,0,0
2017-07-16,0,0
2017-07-17,0,0
2017-07-18,0,0
2017-07-19,0,0
2017-07-20,0,0
2017-07-21,0,0
2017-07-22,0,0
2017-07-23,0,0
2017-07-24,0,0
2017-07-25,0,0
2017-07-26,0,0
2017-07-27,0,0
2017-07-28,0,0
2017-07-29,0,0
2017-07-30,0,0
2017-07-31,0,0
2017-08-01,0,0
2017-08-02,0,0
2017-08-03,0,0
2017-08-04,0,0
2017-08-05,0,0
2017-08-06,0,0
2017-08-07,0,0
2017-08-08,0,0
2017-08-09,0,0
2017-08-10,0,0
2017-08-11,0,0
2017-08-12,0,0
2017-08-13,0,0
2017-08-14,0,0
2017-08-15,0,0
2017-08-16,0,0
2017-08-17,0,0
2017-08-18,0,0
2017-08-19,0,0
2017-08-20,0,0
2017-08-21,0,0
2017-08-22,0,0
2017-08-23,0,0
2017-08-24,0,0
2017-08-25,0,0
2017-08-26,0,0
2017-08-27,0,0
2017-08-28,0,0
2017-08-29,0,0
2017-08-30,0,0
2017-08-31,0,0
2017-09-01,0,0
2017-09-02,0,0
2017-09-03,0,0
2017-09-04,0,0
2017-09-05,0,0
2017-09-06,0,0
2017-09-07,0,0
2017-09-08,0,0
2017-09-09,0,0
2017-09-10,0,0
2017-09-11,0,0
2017-09-12,0,0
2017-09-13,0,0
2017-09-14,0,0
2017-09-15,0,0
2017-09-16,0,0
2017-09-17,0,0
2017-09-18,0,0
2017-09-19,0,0
2017-09-20,0,0
2017-09-21,0,0
2017-09-22,0,0
2017-09-23,0,0
2017-09-24,0,0
2017-09-25,0,0
2017-09-26,0,0
2017-09-27,0,0
2017-09-28,0,0
2017-09-29,0,0
2017-09-30,0,0
2017-10-01,0,0
2017-10-02,0,0
2017-10-03,0,0
2017-10-04,0,0
2017-10-05,0,0
2017-10-06,0,0
2017-10-07,0,0
2017-10-08,0,0
2017-10-09,0,0
2017-10-10,0,0
2017-10-11,0,0
2017-10-12,0,0
2017-10-13,0,0
2017-10-14,0,0
2017-10-15,0,0
2017-10-16,0,0
2017-10-17,0,0
2017-10-18,0,0
2017-10-19,0,0
2017-10-20,0,0
2017-10-21,0,0
2017-10-22,0,0
2017-10-23,0,0
2017-10-24,0,0
2017-10-25,0,0
2017-10-26,0,0
2017-10-27,0,0
2017-10-28,0,0
2017-10-29,0,0
2017-10-30,0,0
2017-10-31,0,0
2017-11-01,0,0
2017-11-02,0,0
2017-11-03,0,0
2017-11-04,0,0
2017-11-05,0,0
2017-11-06,0,0
2017-11-07,0,0
2017-11-08,0,0
2017-11-09,0,0
2017-11-10,0,0
2017-11-11,0,0
2017-11-12,0,0
2017-11-13,0,0
2017-11-14,0,0
2017-11-15,0,0
2017-11-16,0,0
2017-11-17,0,0
2017-11-18,0,0
2017-11-19,0,0
2017-11-20,0,0
2017-11-21,0,0
2017-11-22,0,0
2017-11-23,0,0
2017-11-24,0,0
2017-11-25,0,0
2017-11-26,0,0
2017-11-27,0,0
2017-11-28,0,0
2017-11-29,0,0
2017-11-30,0,0
2017-12-01,0,0
2017-12-02,0,0
2017-12-03,0,0
2017-12-04,0,0
2017-12-05,0,0
2017-12-06,0,0
2017-12-07,0,0
2017-12-08,0,0
2017-12-09,0,0
2017-12-10,0,0
2017-12-11,0,0
2017-12-12,0,0
2017-12-13,0,0
2017-12-14,0,0
2017-12-15,0,0
2017-12-16,0,0
2017-12-17,0,0
2017-12-18,0,0
2017-12-19,0,0
2017-12-20,0,0
2017-12-21,0,0
2017-12-22,0,0
2017-12-23,0,0
2017-12-24,0,0
2017-12-25,0,0
2017-12-26,0,0
2017-12-27,0,0
2017-12-28,0,0
2017-12-29,0,0
2017-12-30,0,0
2017-12-31,0,0
2018-01-01,0,0
2018-01-02,0,0
2018-01-03,0,0
2018-01-04,0,0
2018-01-05,0,0
2018-01-06,0,0
2018-01-07,0,0
2018-01-08,0,0
2018-01-09,0,0
2018-01-10,0,0
2018-01-11,0,0
2018-01-12,0,0
2018-01-13,0,0
2018-01-14,0,0
2018-01-15,0,0
2018-01-16,0,0
2018-01-17,0,0
2018-01-18,0,0
2018-01-19,0,0
2018-01-20,0,0
2018-01-21,0,0
2018-01-22,0,0
2018-01-23,0,0
2018-01-24,0,0
2018-01-25,0,0
2018-01-26,0,0
2018-01-27,0,0
2018-01-28,0,0
2018-01-29,0,0
2018-01-30,0,0
2018-01-31,0,0
2018-02-01,0,0
2018-02-02,0,0
2018-02-03,0,0
2018-02-04,0,0
2018-02-05,0,0
2018-02-06,0,0
2018-02-07,0,0
2018-02-08,0,0
2018-02-09,0,0
2018-02-10,0,0
2018-02-11,0,0
2018-02-12,0,0
2018-02-13,0,0
2018-02-14,0,0
2018-02-15,0,0
2018-02-16,0,0
2018-02-17,0,0
2018-02-18,0,0
2018-02-19,0,0
2018-02-20,0,0
2018-02-21,0,0
2018-02-22,0,0
2018-02-23,0,0
2018-02-24,0,0
2018-02-25,0,0
2018-02-26,0,0
2018-02-27,0,0
2018-02-28,0,0
2018-03-01,0,0
2018-03-02,0,0
2018-03-03,0,0
2018-03-04,0,0
2018-03-05,0,0
2018-03-06,0,0
2018-03-07,0,0
2018-03-08,0,0
2018-03-09,0,0
2018-03-10,0,0
2018-03-11,0,0
2018-03-12,0,0
2018-03-13,0,0
2018-03-14,0,0
2018-03-15,0,0
2018-03-16,0,0
2018-03-17,0,0
2018-03-18,0,0
2018-03-19,0,0
2018-03-20,0,0
2018-03-21,0,0
2018-03-22,0,0
2018-03-23,0,0
2018-03-24,0,0
2018-03-25,0,0
2018-03-26,0,0
2018-03-27,0,0
2018-03-28,0,0
2018-03-29,0,0
2018-03-30,0,0
2018-03-31,0,0
2018-04-01,0,0
2018-04-02,0,0
2018-04-03,0,0
2018-04-04,0,0
2018-04-05,0,0
2018-04-06,0,0
2018-04-07,0,0
2018-04-08,0,0
2018-04-09,0,0
2018-04-10,0,0
2018-04-11,0,0
2018-04-12,0,0
2018-04-13,0,0
2018-04-14,0,0
2018-04-15,0,0
2018-04-16,0,0
2018-04-17,0,0
2018-04-18,0,0
2018-04-19,0,0
2018-04-20,0,0
2018-04-21,0,0
2018-04-22,0,0
2018-04-23,0,0
2018-04-24,0,0
2018-04-25,0,0
2018-04-26,0,0
2018-04-27,0,0
2018-04-28,0,0
2018-04-29,0,0
2018-04-30,0,0
2018-05-01,0,0
2018-05-02,0,0
2018-05-03,0,0
2018-05-04,0,0
2018-05-05,0,0
2018-05-06,0,0
2018-05-07,0,0
2018-05-08,0,0
2018-05-09,0,0
2018-05-10,0,0
2018-05-11,0,0
2018-05-12,0,0
2018-05-13,0,0
2018-05-14,0,0
2018-05-15,0,0
2018-05-16,0,0
2018-05-17,0,0
2018-05-18,0,0
2018-05-19,0,0
2018-05-20,0,0
2018-05-21,0,0
2018-05-22,1,0
2018-05-23,0,0
2018-05-24,0,0
2018-05-25,0,0
2018-05-26,0,0
2018-05-27,0,0
2018-05-28,0,0
2018-05-29,0,0
2018-05-30,0,0
2018-05-31,0,0
2018-06-01,0,0
2018-06-02,0,0
2018-06-03,0,0
2018-06-04,1,0
2018-06-05,0,0
2018-06-06,0,0
2018-06-07,0,0
2018-06-08,0,0
2018-06-09,0,0
2018-06-10,0,0
2018-06-11,0,0
2018-06-12,0,0
2018-06-13,0,0
2018-06-14,0,0
2018-06-15,0,0
2018-06-16,0,0
2018-06-17,0,0
2018-06-18,0,0
2018-06-19,0,0
2018-06-20,0,0
2018-06-21,0,0
2018-06-22,0,0
2018-06-23,0,0
2018-06-24,0,0
2018-06-25,0,0
2018-06-26,0,0
2018-06-27,0,0
2018-06-28,1,0
2018-06-29,0,0
2018-06-30,0,0
2018-07-01,0,0
2018-07-02,0,0
2018-07-03,0,0
2018-07-04,0,0
2018-07-05,0,0
2018-07-06,0,0
2018-07-07,0,0
2018-07-08,0,0
2018-07-09,1,0
2018-07-10,0,0
2018-07-11,0,0
2018-07-12,0,0
2018-07-13,0,0
2018-07-14,0,0
2018-07-15,0,0
2018-07-16,0,0
2018-07-17,0,0
2018-07-18,0,0
2018-07-19,0,0
2018-07-20,0,0
2018-07-21,0,0
2018-07-22,0,0
2018-07-23,0,0
2018-07-24,0,0
2018-07-25,0,0
2018-07-26,0,0
2018-07-27,0,0
2018-07-28,0,0
2018-07-29,0,0
2018-07-30,0,0
2018-07-31,0,0
2018-08-01,0,0
2018-08-02,0,0
2018-08-03,0,0
2018-08-04,0,0
2018-08-05,0,0
2018-08-06,0,0
2018-08-07,0,0
2018-08-08,0,0
2018-08-09,0,0
2018-08-10,0,0
2018-08-11,0,0
2018-08-12,0,0
2018-08-13,0,0
2018-08-14,0,0
2018-08-15,0,0
2018-08-16,0,0
2018-08-17,0,0
2018-08-18,0,0
2018-08-19,0,0
2018-08-20,0,0
2018-08-21,0,0
2018-08-22,0,0
2018-08-23,0,0
2018-08-24,0,0
2018-08-25,0,0
2018-08-26,0,0
2018-08-27,0,0
2018-08-28,0,0
2018-08-29,0,0
2018-08-30,0,0
2018-08-31,0,0
2018-09-01,1,0
2018-09-02,0,0
2018-09-03,0,0
2018-09-04,0,0
2018-09-05,0,0
2018-09-06,0,0
2018-09-07,0,0
2018-09-08,0,0
2018-09-09,0,0
2018-09-10,0,0
2018-09-11,0,0
2018-09-12,0,0
2018-09-13,0,0
2018-09-14,0,0
2018-09-15,0,0
2018-09-16,0,0
2018-09-17,0,0
2018-09-18,0,0
2018-09-19,0,0
2018-09-20,0,0
2018-09-21,0,0
2018-09-22,0,0
2018-09-23,0,0
2018-09-24,0,0
2018-09-25,0,0
2018-09-26,0,0
2018-09-27,0,0
2018-09-28,0,0
2018-09-29,0,0
2018-09-30,0,0
2018-10-01,0,0
2018-10-02,0,0
2018-10-03,0,0
2018-10-04,0,0
2018-10-05,0,0
2018-10-06,0,0
2018-10-07,0,0
2018-10-08,0,0
2018-10-09,0,0
2018-10-10,0,0
2018-10-11,0,0
2018-10-12,0,0
2018-10-13,0,0
2018-10-14,0,0
2018-10-15,0,0
2018-10-16,0,0
2018-10-17,0,0
2018-10-18,0,0
2018-10-19,0,0
2018-10-20,0,0
2018-10-21,0,0
2018-10-22,0,0
2018-10-23,0,0
2018-10-24,0,0
2018-10-25,0,0
2018-10-26,0,0
2018-10-27,0,0
2018-10-28,0,0
2018-10-29,0,0
2018-10-30,0,0
2018-10-31,0,0
2018-11-01,0,0
2018-11-02,0,0
2018-11-03,0,0
2018-11-04,0,0
2018-11-05,0,0
2018-11-06,0,0
2018-11-07,0,0
2018-11-08,0,0
2018-11-09,0,0
2018-11-10,0,0
2018-11-11,0,0
2018-11-12,0,0
2018-11-13,0,0
2018-11-14,0,0
2018-11-15,0,0
2018-11-16,0,0
2018-11-17,0,0
2018-11-18,0,0
2018-11-19,0,0
2018-11-20,0,0
2018-11-21,0,0
2018-11-22,0,0
2018-11-23,0,0
2018-11-24,0,0
2018-11-25,0,0
2018-11-26,0,0
2018-11-27,0,0
2018-11-28,0,0
2018-11-29,1,0
2018-11-30,0,0
2018-12-01,0,0
2018-12-02,0,0
2018-12-03,0,0
2018-12-04,0,0
2018-12-05,0,0
2018-12-06,0,0
2018-12-07,0,0
2018-12-08,0,0
2018-12-09,0,0
2018-12-10,0,0
2018-12-11,0,0
2018-12-12,0,0
2018-12-13,0,0
2018-12-14,0,0
2018-12-15,0,0
2018-12-16,1,0
2018-12-17,0,0
2018-12-18,0,0
2018-12-19,0,0
2018-12-20,0,0
2018-12-21,0,0
2018-12-22,0,0
2018-12-23,0,0
2018-12-24,0,0
2018-12-25,0,0
2018-12-26,0,0
2018-12-27,1,0
2018-12-28,0,0
2018-12-29,0,0
2018-12-30,0,0
2018-12-31,0,0
2019-01-01,0,0
2019-01-02,0,0
2019-01-03,0,0
2019-01-04,0,1
2019-01-05,0,0
2019-01-06,0,0
2019-01-07,0,0
2019-01-08,0,0
2019-01-09,0,0
2019-01-10,0,0
2019-01-11,1,0
2019-01-12,0,0
2019-01-13,0,0
2019-01-14,0,0
2019-01-15,0,0
2019-01-16,0,0
2019-01-17,0,0
2019-01-18,0,0
2019-01-19,0,0
2019-01-20,0,0
2019-01-21,0,0
2019-01-22,0,1
2019-01-23,0,0
2019-01-24,0,0
2019-01-25,0,0
2019-01-26,0,0
2019-01-27,0,0
2019-01-28,0,0
2019-01-29,1,0
2019-01-30,1,0
2019-01-31,0,1
2019-02-01,0,0
2019-02-02,0,1
2019-02-03,0,1
2019-02-04,0,0
2019-02-05,0,0
2019-02-06,0,0
2019-02-07,0,1
2019-02-08,0,0
2019-02-09,0,0
2019-02-10,0,0
2019-02-11,0,0
2019-02-12,0,0
2019-02-13,0,0
2019-02-14,0,1
2019-02-15,0,0
2019-02-16,0,2
2019-02-17,0,0
2019-02-18,0,0
2019-02-19,0,0
2019-02-20,0,0
2019-02-21,0,1
2019-02-22,0,0
2019-02-23,0,0
2019-02-24,0,0
2019-02-25,0,0
2019-02-26,0,0
2019-02-27,0,0
2019-02-28,0,0
2019-03-01,0,0
2019-03-02,0,0
2019-03-03,0,0
2019-03-04,1,1
2019-03-05,0,0
2019-03-06,0,1
2019-03-07,0,1
2019-03-08,0,1
2019-03-09,0,0
2019-03-10,0,1
2019-03-11,0,0
2019-03-12,0,0
2019-03-13,0,0
2019-03-14,0,0
2019-03-15,0,0
2019-03-16,0,0
2019-03-17,0,0
2019-03-18,0,0
2019-03-19,0,0
2019-03-20,0,0
2019-03-21,0,0
2019-03-22,0,0
2019-03-23,1,1
2019-03-24,0,0
2019-03-25,0,0
2019-03-26,0,0
2019-03-27,0,0
2019-03-28,0,0
2019-03-29,0,0
2019-03-30,0,0
2019-03-31,0,0
2019-04-01,0,0
2019-04-02,0,0
2019-04-03,0,0
2019-04-04,0,0
2019-04-05,0,0
2019-04-06,0,0
2019-04-07,0,0
2019-04-08,0,0
2019-04-09,0,1
2019-04-10,0,0
2019-04-11,0,0
2019-04-12,0,0
2019-04-13,0,0
2019-04-14,0,0
2019-04-15,0,0
2019-04-16,0,0
2019-04-17,0,1
2019-04-18,0,0
2019-04-19,0,0
2019-04-20,0,0
2019-04-21,0,0
2019-04-22,0,0
2019-04-23,0,0
2019-04-24,0,0
2019-04-25,0,1
2019-04-26,0,0
2019-04-27,0,0
2019-04-28,0,0
2019-04-29,0,0
2019-04-30,0,0
2019-05-01,1,0
2019-05-02,0,0
2019-05-03,0,1
2019-05-04,0,1
2019-05-05,0,0
2019-05-06,0,1
2019-05-07,0,0
2019-05-08,0,0
2019-05-09,0,0
2019-05-10,0,0
2019-05-11,0,0
2019-05-12,0,0
2019-05-13,0,0
2019-05-14,0,0
2019-05-15,0,1
2019-05-16,0,0
2019-05-17,0,0
2019-05-18,0,0
2019-05-19,0,0
2019-05-20,0,0
2019-05-21,0,0
2019-05-22,0,0
2019-05-23,0,0
2019-05-24,0,0
2019-05-25,0,0
2019-05-26,0,0
2019-05-27,0,0
2019-05-28,0,0
2019-05-29,0,0
2019-05-30,0,0
2019-05-31,0,0
2019-06-01,0,0
2019-06-02,0,0
2019-06-03,0,0
2019-06-04,0,0
2019-06-05,0,0
2019-06-06,0,0
2019-06-07,0,0
2019-06-08,0,0
2019-06-09,0,1
2019-06-10,0,0
2019-06-11,0,0
2019-06-12,0,0
2019-06-13,0,0
2019-06-14,0,0
2019-06-15,0,1
2019-06-16,0,1
2019-06-17,0,0
2019-06-18,0,0
2019-06-19,0,0
2019-06-20,0,0
2019-06-21,0,0
2019-06-22,0,0
2019-06-23,0,0
2019-06-24,0,0
2019-06-25,0,0
2019-06-26,0,0
2019-06-27,1,0
2019-06-28,0,0
2019-06-29,0,0
2019-06-30,0,0
2019-07-01,0,0
2019-07-02,0,0
2019-07-03,0,0
2019-07-04,0,0
2019-07-05,1,0
2019-07-06,1,0
2019-07-07,0,0
2019-07-08,0,0
2019-07-09,0,0
2019-07-10,0,0
2019-07-11,0,0
2019-07-12,0,0
2019-07-13,0,0
2019-07-14,0,0
2019-07-15,0,0
2019-07-16,1,1
2019-07-17,0,0
2019-07-18,0,0
2019-07-19,0,0
2019-07-20,0,0
2019-07-21,0,0
2019-07-22,0,0
2019-07-23,0,0
2019-07-24,0,0
2019-07-25,0,0
2019-07-26,0,0
2019-07-27,1,0
2019-07-28,0,0
2019-07-29,0,0
2019-07-30,0,0
2019-07-31,0,0
2019-08-01,0,0
2019-08-02,0,0
2019-08-03,1,0
2019-08-04,1,1
2019-08-05,0,1
2019-08-06,0,3
2019-08-07,0,1
2019-08-08,0,2
2019-08-09,0,0
2019-08-10,0,3
2019-08-11,0,2
2019-08-12,0,1
2019-08-13,0,1
2019-08-14,0,0
2019-08-15,0,2
2019-08-16,0,3
2019-08-17,0,1
2019-08-18,0,1
2019-08-19,0,1
2019-08-20,0,2
2019-08-21,0,1
2019-08-22,0,1
2019-08-23,0,1
2019-08-24,0,0
2019-08-25,0,1
2019-08-26,0,1
2019-08-27,0,1
2019-08-28,0,0
2019-08-29,0,1
2019-08-30,1,1
2019-08-31,0,2
2019-09-01,0,0
2019-09-02,0,0
2019-09-03,0,1
2019-09-04,2,0
2019-09-05,0,0
2019-09-06,0,0
2019-09-07,1,2
2019-09-08,0,0
2019-09-09,0,1
2019-09-10,0,0
2019-09-11,0,0
2019-09-12,0,1
2019-09-13,0,0
2019-09-14,0,1
2019-09-15,0,0
2019-09-16,0,1
2019-09-17,0,0
2019-09-18,1,0
2019-09-19,0,2
2019-09-20,0,0
2019-09-21,0,0
2019-09-22,0,0
2019-09-23,0,0
2019-09-24,0,1
2019-09-25,0,0
2019-09-26,0,0
2019-09-27,0,0
2019-09-28,0,0
2019-09-29,0,0
2019-09-30,0,0
2019-10-01,0,0
2019-10-02,0,1
2019-10-03,0,2
2019-10-04,0,1
2019-10-05,0,0
2019-10-06,0,1
2019-10-07,0,0
2019-10-08,0,0
2019-10-09,0,1
2019-10-10,0,1
2019-10-11,0,1
2019-10-12,0,0
2019-10-13,0,0
2019-10-14,0,0
2019-10-15,0,0
2019-10-16,0,0
2019-10-17,0,1
2019-10-18,0,0
2019-10-19,0,0
2019-10-20,0,0
2019-10-21,0,1
2019-10-22,0,1
2019-10-23,0,1
2019-10-24,0,1
2019-10-25,0,0
2019-10-26,0,0
2019-10-27,0,0
2019-10-28,0,1
2019-10-29,0,0
2019-10-30,0,0
2019-10-31,0,0
2019-11-01,0,1
2019-11-02,0,3
2019-11-03,0,0
2019-11-04,0,1
2019-11-05,0,1
2019-11-06,0,3
2019-11-07,0,1
2019-11-08,0,1
2019-11-09,0,1
2019-11-10,0,0
2019-11-11,0,0
2019-11-12,0,1
2019-11-13,0,0
2019-11-14,0,0
2019-11-15,0,0
2019-11-16,0,1
2019-11-17,0,1
2019-11-18,0,0
2019-11-19,1,0
2019-11-20,0,1
2019-11-21,0,0
2019-11-22,0,1
2019-11-23,0,0
2019-11-24,0,1
2019-11-25,0,0
2019-11-26,0,0
2019-11-27,0,0
2019-11-28,0,0
2019-11-29,0,2
2019-11-30,0,0
2019-12-01,1,0
2019-12-02,1,0
2019-12-03,1,0
2019-12-04,0,0
2019-12-05,0,1
2019-12-06,0,0
2019-12-07,0,1
2019-12-08,0,2
2019-12-09,0,0
2019-12-10,0,1
2019-12-11,0,0
2019-12-12,0,0
2019-12-13,0,0
2019-12-14,0,0
2019-12-15,0,1
2019-12-16,0,0
2019-12-17,0,4
2019-12-18,0,0
2019-12-19,0,1
2019-12-20,2,0
2019-12-21,0,0
2019-12-22,0,1
2019-12-23,0,0
2019-12-24,0,3
2019-12-25,0,1
2019-12-26,0,1
2019-12-27,0,0
2019-12-28,0,3
2019-12-29,0,2
2019-12-30,0,3
2019-12-31,0,2
2020-01-01,0,1
2020-01-02,0,0
2020-01-03,0,0
2020-01-04,0,0
2020-01-05,0,1
2020-01-06,0,2
2020-01-07,0,0
2020-01-08,0,0
2020-01-09,1,0
2020-01-10,0,3
2020-01-11,0,1
2020-01-12,0,2
2020-01-13,0,1
2020-01-14,0,2
2020-01-15,0,1
2020-01-16,0,2
2020-01-17,0,0
2020-01-18,0,0
2020-01-19,0,1
2020-01-20,0,0
2020-01-21,0,2
2020-01-22,0,1
2020-01-23,0,0
2020-01-24,0,1
2020-01-25,0,0
2020-01-26,0,1
2020-01-27,0,2
2020-01-28,0,2
2020-01-29,0,2
2020-01-30,0,2
2020-01-31,0,2
2020-02-01,0,1
2020-02-02,0,1
2020-02-03,0,0
2020-02-04,0,1
2020-02-05,0,0
2020-02-06,0,1
2020-02-07,0,2
2020-02-08,0,1
2020-02-09,0,0
2020-02-10,0,0
2020-02-11,0,1
2020-02-12,0,0
2020-02-13,0,1
2020-02-14,0,0
2020-02-15,0,1
2020-02-16,0,2
2020-02-17,0,2
2020-02-18,0,3
2020-02-19,0,0
2020-02-20,0,2
2020-02-21,0,1
2020-02-22,0,0
2020-02-23,0,1
2020-02-24,0,1
2020-02-25,0,1
2020-02-26,0,1
2020-02-27,0,2
2020-02-28,0,1
2020-02-29,0,2
2020-03-01,0,3
2020-03-02,0,0
2020-03-03,0,2
2020-03-04,0,2
2020-03-05,0,2
2020-03-06,0,1
2020-03-07,0,3
2020-03-08,0,2
2020-03-09,0,0
2020-03-10,1,0
2020-03-11,0,1
2020-03-12,0,2
2020-03-13,0,1
2020-03-14,0,0
2020-03-15,0,0
2020-03-16,0,1
2020-03-17,0,0
2020-03-18,0,0
2020-03-19,0,1
2020-03-20,0,0
2020-03-21,0,2
2020-03-22,0,1
2020-03-23,0,2
2020-03-24,0,1
2020-03-25,0,1
2020-03-26,0,0
2020-03-27,0,1
2020-03-28,0,3
2020-03-29,0,2
2020-03-30,0,1
2020-03-31,0,0
2020-04-01,0,0
2020-04-02,1,2
2020-04-03,0,0
2020-04-04,0,0
2020-04-05,0,1
2020-04-06,0,2
2020-04-07,0,0
2020-04-08,0,0
2020-04-09,0,3
2020-04-10,0,1
2020-04-11,0,0
2020-04-12,0,1
2020-04-13,0,1
2020-04-14,0,1
2020-04-15,0,0
2020-04-16,0,2
2020-04-17,0,1
2020-04-18,0,0
2020-04-19,0,1
2020-04-20,0,1
2020-04-21,0,1
2020-04-22,0,1
2020-04-23,0,1
2020-04-24,0,1
2020-04-25,0,0
2020-04-26,0,2
2020-04-27,41,18
2020-04-28,592,402
2020-04-29,141,578
2020-04-30,96,594
2020-05-01,122,648
2020-05-02,88,721
2020-05-03,79,773
2020-05-04,55,817
2020-05-05,48,852
2020-05-06,74,879
2020-05-07,39,877
2020-05-08,79,912
2020-05-09,50,976
2020-05-10,65,975
2020-05-11,83,1082
2020-05-12,44,1082
2020-05-13,31,1100
2020-05-14,115,1202
2020-05-15,16,1209
2020-05-16,8,1228
2020-05-17,15,1206
2020-05-18,7,1183
2020-05-19,38,1228
2020-05-20,36,1264
2020-05-21,20,1259
2020-05-22,19,1271
2020-05-23,28,1238
2020-05-24,40,1253
2020-05-25,17,1254
2020-05-26,54,1305
2020-05-27,36,1323
2020-05-28,45,1347
2020-05-29,19,1324
2020-05-30,34,1331
2020-05-31,51,1397
2020-06-01,53,1379
2020-06-02,21,1433
2020-06-03,15,1391
2020-06-04,14,1423
2020-06-05,2,1403
2020-06-06,8,1406
2020-06-07,15,1325
2020-06-08,19,1456
2020-06-09,8,1432
2020-06-10,4,1401
2020-06-11,6,1419
2020-06-12,5,1400
2020-06-13,3,1390
2020-06-14,9,1410
2020-06-15,11,1389
2020-06-16,7,1393
2020-06-17,15,1380
2020-06-18,10,1405
2020-06-19,20,1380
2020-06-20,21,1345
2020-06-21,40,1418
2020-06-22,9,1436
2020-06-23,16,1414
2020-06-24,13,1436
2020-06-25,9,1407
2020-06-26,8,1420
2020-06-27,16,1436
2020-06-28,15,1437
2020-06-29,8,1469
2020-06-30,4,1474
2020-07-01,28,1454
2020-07-02,2,1415
2020-07-03,0,1453
2020-07-04,7,1441
2020-07-05,3,1471
2020-07-06,6,1496
2020-07-07,22,1487
2020-07-08,0,1471
2020-07-09,3,1444
2020-07-10,3,1477
2020-07-11,10,1399
2020-07-12,61,1434
2020-07-13,61,1518
2020-07-14,14,1493
2020-07-15,8,1506
2020-07-16,2,1463
2020-07-17,2,1484
2020-07-18,4,1494
2020-07-19,9,1490
2020-07-20,12,1525
2020-07-21,5,1455
2020-07-22,5,1475
2020-07-23,13,1464
2020-07-24,2,1471
2020-07-25,8,1478
2020-07-26,7,1477
2020-07-27,8,1492
2020-07-28,7,1530
2020-07-29,14,1518
2020-07-30,2,1519
2020-07-31,10,1506
2020-08-01,6,1457
2020-08-02,4,1526
2020-08-03,6,1481
2020-08-04,10,1526
2020-08-05,5,1492
2020-08-06,9,1438
2020-08-07,5,1493
2020-08-08,7,1470
2020-08-09,24,1530
2020-08-10,13,1492
2020-08-11,5,1513
2020-08-12,4,1540
2020-08-13,3,1508
2020-08-14,18,1515
2020-08-15,34,1463
2020-08-16,48,1537
2020-08-17,28,1584
2020-08-18,8,1535
2020-08-19,4,1568
2020-08-20,5,1576
2020-08-21,9,1550
2020-08-22,5,1605
2020-08-23,8,1515
2020-08-24,67,1633
2020-08-25,9,1698
2020-08-26,4,1601
2020-08-27,2,1630
2020-08-28,4,1599
2020-08-29,8,1578
2020-08-30,5,1617
2020-08-31,11,1656
2020-09-01,34,1632
2020-09-02,14,1605
2020-09-03,6,1612
2020-09-04,23,1671
2020-09-05,19,1624
2020-09-06,14,1653
2020-09-07,7,1625
2020-09-08,6,1717
2020-09-09,9,1634
2020-09-10,8,1671
2020-09-11,6,1600
2020-09-12,10,1640
2020-09-13,5,1639
2020-09-14,14,1645
2020-09-15,11,1680
2020-09-16,7,1673
2020-09-17,7,1653
2020-09-18,8,1674
2020-09-19,3,1631
2020-09-20,7,1661
2020-09-21,8,1671
2020-09-22,6,1675
2020-09-23,7,1663
2020-09-24,6,1689
2020-09-25,8,1658
2020-09-26,11,1628
2020-09-27,21,1671
2020-09-28,14,1638
2020-09-29,4,1644
2020-09-30,5,1639
2020-10-01,5,1659
2020-10-02,9,1701
2020-10-03,9,1613
2020-10-04,3,1688
2020-10-05,5,1690
2020-10-06,7,1635
2020-10-07,2,1615
2020-10-08,7,1673
2020-10-09,3,1669
2020-10-10,6,1581
2020-10-11,8,1622
2020-10-12,2,1680
2020-10-13,5,1668
2020-10-14,9,1663
2020-10-15,9,1669
2020-10-16,5,1654
2020-10-17,11,1589
2020-10-18,22,1617
2020-10-19,11,1672
2020-10-20,3,1671
2020-10-21,15,1696
2020-10-22,38,1730
2020-10-23,13,1689
2020-10-24,5,1681
2020-10-25,10,1710
2020-10-26,4,1732
2020-10-27,7,1687
2020-10-28,3,1674
2020-10-29,7,1688
2020-10-30,3,1703
2020-10-31,19,1664
2020-11-01,21,1671
2020-11-02,5,1740
2020-11-03,4,1750
2020-11-04,5,1660
2020-11-05,0,1689
2020-11-06,4,1715
2020-11-07,63,1708
2020-11-08,26,1738
2020-11-09,94,1874
2020-11-10,41,1799
2020-11-11,27,1839
2020-11-12,12,1836
2020-11-13,20,1849
2020-11-14,35,1831
2020-11-15,31,1861
2020-11-16,18,1885
2020-11-17,20,1901
2020-11-18,11,1876
2020-11-19,24,1888
2020-11-20,22,1915
2020-11-21,20,1892
2020-11-22,14,1919
2020-11-23,9,1912
2020-11-24,20,1872
2020-11-25,9,1884
2020-11-26,6,1875
2020-11-27,37,1934
2020-11-28,29,1881
2020-11-29,40,1891
2020-11-30,33,1943
2020-12-01,25,1953
2020-12-02,21,1955
2020-12-03,28,1930
2020-12-04,14,2003
2020-12-05,12,1905
2020-12-06,17,1931
2020-12-07,12,1982
2020-12-08,22,1971
2020-12-09,12,1943
2020-12-10,10,2031
2020-12-11,14,1945
2020-12-12,5,1965
2020-12-13,9,1963
2020-12-14,8,1979
2020-12-15,11,2001
2020-12-16,7,1949
2020-12-17,9,1929
2020-12-18,10,1967
2020-12-19,4,1908
2020-12-20,11,1884
2020-12-21,15,1990
2020-12-22,8,1878
2020-12-23,6,1872
2020-12-24,6,1871
2020-12-25,10,1771
2020-12-26,5,1887
2020-12-27,5,1906
2020-12-28,14,1947
2020-12-29,10,1891
2020-12-30,8,1938
2020-12-31,7,1881
2021-01-01,7,1875
2021-01-02,10,1874
2021-01-03,17,1939
2021-01-04,17,1972
2021-01-05,12,1987
2021-01-06,14,1923
2021-01-07,4,1994
2021-01-08,22,1942
2021-01-09,25,1983
2021-01-10,23,1980
2021-01-11,47,2045
2021-01-12,10,1986
2021-01-13,10,1952
2021-01-14,10,2028
2021-01-15,9,1988
2021-01-16,6,1991
2021-01-17,14,1926
2021-01-18,8,2088
2021-01-19,5,2066
2021-01-20,18,2087
2021-01-21,18,2100
2021-01-22,24,2038
2021-01-23,23,2090
2021-01-24,22,2031
2021-01-25,8,2121
2021-01-26,14,2107
2021-01-27,14,2090
2021-01-28,9,2127
2021-01-29,25,2132
2021-01-30,15,1862
2021-01-31,16,2106
2021-02-01,24,2123
2021-02-02,17,2167
2021-02-03,28,2120
2021-02-04,7,2153
2021-02-05,9,2176
2021-02-06,18,2153
2021-02-07,15,2156
2021-02-08,9,2086
2021-02-09,14,1673
2021-02-10,29,1660
2021-02-11,20,1662
2021-02-12,21,1669
2021-02-13,16,1548
2021-02-14,22,1227
2021-02-15,11,2349
2021-02-16,15,2131
2021-02-17,10,2179
2021-02-18,12,2113
2021-02-19,17,2174
2021-02-20,14,2143
2021-02-21,13,2184
2021-02-22,15,2037
2021-02-23,19,2211
2021-02-24,7,2035
2021-02-25,14,2209
2021-02-26,17,2195
2021-02-27,21,2214
2021-02-28,12,2228
2021-03-01,14,2231
2021-03-02,16,2288
2021-03-03,18,2223
2021-03-04,10,2286
2021-03-05,17,2268
2021-03-06,11,2242
2021-03-07,14,2157
2021-03-08,11,1842
2021-03-09,14,1666
2021-03-10,15,1783
2021-03-11,23,1606
2021-03-12,8,1774
2021-03-13,8,1685
2021-03-14,10,1579
2021-03-15,9,1658
2021-03-16,5,1959
2021-03-17,6,1672
2021-03-18,3,1641
2021-03-19,6,1556
2021-03-20,7,1678
2021-03-21,6,1358
2021-03-22,4,1612
2021-03-23,9,1371
2021-03-24,8,1564
2021-03-25,9,1670
2021-03-26,10,1536
2021-03-27,18,1494
2021-03-28,15,1393
2021-03-29,3,1474
2021-03-30,6,1641
2021-03-31,6,1417
2021-04-01,4,1602
2021-04-02,1,1475
2021-04-03,4,1237
2021-04-04,12,1611
2021-04-05,6,1571
2021-04-06,6,1554
2021-04-07,2,1528
2021-04-08,3,1724
2021-04-09,4,1493
2021-04-10,4,1592
2021-04-11,5,1536
2021-04-12,6,1352
2021-04-13,3,1664
2021-04-14,3,1613
2021-04-15,4,1412
2021-04-16,2,2344
2021-04-17,7,2129
2021-04-18,3,2129
2021-04-19,9,2169
2021-04-20,4,2190
2021-04-21,4,2221
2021-04-22,6,2148
2021-04-23,15,2192
2021-04-24,2,2135
2021-04-25,18,2165
2021-04-26,6,2192
2021-04-27,4,2150
2021-04-28,2,2183
2021-04-29,5,2191
2021-04-30,3,2136
2021-05-01,5,2082
2021-05-02,11,2137
2021-05-03,4,2152
2021-05-04,4,2201
2021-05-05,4,2112
2021-05-06,3,2113
2021-05-07,7,2146
2021-05-08,2,2105
2021-05-09,2,2090
2021-05-10,6,2119
2021-05-11,2,2091
2021-05-12,8,2153
2021-05-13,3,2082
2021-05-14,20,2128
2021-05-15,4,2142
2021-05-16,6,2108
2021-05-17,3,2143
2021-05-18,5,2167
2021-05-19,4,2142
2021-05-20,4,2107
2021-05-21,8,2124
2021-05-22,6,2209
2021-05-23,8,2182
2021-05-24,4,2224
2021-05-25,1,2196
2021-05-26,8,2180
2021-05-27,5,2190
2021-05-28,4,2175
2021-05-29,5,2178
2021-05-30,7,2095
2021-05-31,16,2203
2021-06-01,18,2072
2021-06-02,5,2162
2021-06-03,4,2186
2021-06-04,1,2082
2021-06-05,2,1723
2021-06-06,9,2154
2021-06-07,7,2002
2021-06-08,3,2167
2021-06-09,6,2068
2021-06-10,3,2140
2021-06-11,6,2118
2021-06-12,5,2157
2021-06-13,2,2157
2021-06-14,5,2206
2021-06-15,2,2175
2021-06-16,5,2204
2021-06-17,6,2195
2021-06-18,10,2163
2021-06-19,7,2162
2021-06-20,16,2152
2021-06-21,6,2184
2021-06-22,7,2206
2021-06-23,4,2189
2021-06-24,6,2183
2021-06-25,7,2115
2021-06-26,9,2137
2021-06-27,6,2138
2021-06-28,3,2138
2021-06-29,4,2172
2021-06-30,4,2136
2021-07-01,4,2207
2021-07-02,6,2176
2021-07-03,8,2094
2021-07-04,4,2080
2021-07-05,5,2197
2021-07-06,9,2153
2021-07-07,4,2184
2021-07-08,2,2151
2021-07-09,4,2106
2021-07-10,6,2061
2021-07-11,5,2137
2021-07-12,7,2105
2021-07-13,13,2150
2021-07-14,4,2192
2021-07-15,4,2119
2021-07-16,4,2171
2021-07-17,4,2091
2021-07-18,8,169
2021-07-19,5,931
2021-07-20,4,2180
2021-07-21,10,2042
2021-07-22,7,2018
2021-07-23,2,1971
2021-07-24,4,1943
2021-07-25,6,2055
2021-07-26,3,2067
2021-07-27,4,2073
2021-07-28,8,2051
2021-07-29,1,2100
2021-07-30,6,2019
2021-07-31,3,2045